Location: Godiavel Galaoual
(15.2485°N, 12.6604°W)
Time: 01:02:33
(UTC+00:00)

Transit 4A - Pass Details

Date: 21 June 2021
Orbit: 872 x 972 km, 66.8° (Epoch: 29 July)

Event Time Altitude Azimuth Distance (km) Brightness Sun altitude
Rises 18:57:41 0° 359° (N) 3,459 11.2 4.9°
Reaches altitude 10° 19:00:39 10° 13° (NNE) 2,529 10.4 4.2°
Maximum altitude 19:05:16 24° 65° (ENE) 1,758 9.1 3.2°
Drops below altitude 10° 19:09:56 10° 118° (ESE) 2,568 9.6 2.2°
Sets 19:12:57 0° 131° (SE) 3,526 10.3 1.5°
